F1JRN-13 Weather Reports


time (UTC)temp
F
wind
direction
speed
knots
gust
knots
rain 1hr
in
rain 24hr
in
rain mn
in
humidity
%
barometer
mb
20260510020433 57 78 1.7 3.5 0.00 0.00 0.00 64 1011.7
20260510015533 57 354 2.6 3.5 0.00 0.00 0.00 64 1011.7
20260510014633 57 327 2.6 5.2 0.00 0.00 0.00 63 1011.7
20260510013733 57 62 1.7 5.2 0.00 0.00 0.00 63 1011.6
20260510011933 57 36 1.7 3.5 0.00 0.00 0.00 63 1011.6
20260510005233 57 349 3.5 4.3 0.00 0.00 0.00 63 1011.8
20260510004333 58 3 0.9 2.6 0.00 0.00 0.00 63 1011.9
20260510002533 58 20 2.6 3.5 0.00 0.00 0.00 63 1012.0
20260510001633 58 71 1.7 3.5 0.00 0.00 0.00 63 1012.2
20260510000733 58 88 1.7 3.5 0.00 0.00 0.00 64 1012.2
20260509234933 58 329 0.9 1.7 0.00 0.00 0.00 64 1012.6
20260509234033 57 328 1.7 2.6 0.00 0.00 0.00 64 1012.5
20260509233133 57 323 0.9 1.7 0.00 0.00 0.00 64 1012.6
20260509232233 58 330 0.0 1.7 0.00 0.00 0.00 63 1012.6
20260509231333 58 357 0.9 3.5 0.00 0.00 0.00 63 1012.6
20260509224633 58 314 1.7 2.6 0.00 0.00 0.00 63 1012.6
20260509223733 58 327 1.7 2.6 0.00 0.00 0.00 62 1012.6
20260509222833 58 332 0.0 1.7 0.00 0.00 0.00 62 1012.6
20260509220133 59 352 0.0 1.7 0.00 0.00 0.00 61 1012.4
20260509215233 60 335 0.9 3.5 0.00 0.00 0.00 61 1012.4
20260509214333 60 357 0.9 3.5 0.00 0.00 0.00 61 1012.5
20260509213433 60 46 0.9 4.3 0.00 0.00 0.00 61 1012.5
20260509212533 61 12 1.7 3.5 0.00 0.00 0.00 61 1012.5
20260509211633 61 355 2.6 5.2 0.00 0.00 0.00 61 1012.6
20260509210733 61 330 0.9 3.5 0.00 0.00 0.00 61 1012.8
20260509205833 61 314 1.7 3.5 0.00 0.00 0.00 62 1012.8
20260509204933 61 25 1.7 5.2 0.00 0.00 0.00 62 1012.9
20260509204033 62 70 2.6 5.2 0.00 0.00 0.00 63 1012.8
20260509203133 61 29 1.7 3.5 0.00 0.00 0.00 63 1012.9
20260509202233 62 41 1.7 5.2 0.00 0.00 0.00 63 1013.0
20260509201333 62 84 1.7 5.2 0.00 0.00 0.00 62 1012.7
20260509200433 63 85 3.5 5.2 0.00 0.00 0.00 63 1012.5
20260509195533 63 91 1.7 5.2 0.00 0.00 0.00 63 1012.5
20260509193733 64 90 6.1 7.0 0.00 0.00 0.00 60 1012.2
20260509191933 64 46 2.6 4.3 0.00 0.00 0.00 59 1011.8
20260509191033 64 88 2.6 4.3 0.00 0.00 0.00 59 1011.8
20260509185233 65 83 1.7 5.2 0.00 0.00 0.00 58 1011.8
20260509184333 66 96 3.5 7.0 0.00 0.00 0.00 57 1011.5
20260509182533 68 36 3.5 7.8 0.00 0.00 0.00 55 1011.3
20260509180733 70 24 4.3 8.7 0.00 0.00 0.00 53 1011.3
20260509175833 72 52 3.5 7.0 0.00 0.00 0.00 53 1011.3
20260509174933 72 123 2.6 7.0 0.00 0.00 0.00 52 1011.3
20260509174033 73 31 1.7 7.0 0.00 0.00 0.00 50 1011.3
20260509171333 71 83 4.3 7.0 0.00 0.00 0.00 52 1011.1
20260509170433 72 23 1.7 10.4 0.00 0.00 0.00 51 1011.2
20260509165533 74 83 3.5 6.1 0.00 0.00 0.00 49 1011.0
20260509164633 75 31 1.7 7.8 0.00 0.00 0.00 47 1011.1
20260509163733 76 90 2.6 10.4 0.00 0.00 0.00 48 1010.9
20260509162833 75 338 4.3 7.0 0.00 0.00 0.00 50 1011.0
20260509161933 73 71 1.7 9.6 0.00 0.00 0.00 47 1011.0
20260509161033 76 333 3.5 8.7 0.00 0.00 0.00 44 1011.1
20260509160133 78 346 2.6 4.3 0.00 0.00 0.00 45 1011.1
20260509155233 77 12 3.5 5.2 0.00 0.00 0.00 44 1011.3
20260509154335 77 79 1.7 7.0 0.00 0.00 0.00 43 1011.2
20260509153433 78 47 2.6 5.2 0.00 0.00 0.00 44 1011.2
20260509152533 78 2 3.5 6.1 0.00 0.00 0.00 43 1011.4
20260509151633 79 358 3.5 7.0 0.00 0.00 0.00 43 1011.6
20260509150733 78 83 4.3 7.0 0.00 0.00 0.00 44 1011.6
20260509145833 77 91 2.6 9.6 0.00 0.00 0.00 44 1011.7
20260509144933 77 86 6.1 9.6 0.00 0.00 0.00 42 1011.7
20260509144033 79 30 2.6 7.0 0.00 0.00 0.00 44 1011.7
20260509143133 79 85 5.2 9.6 0.00 0.00 0.00 43 1011.7
20260509142233 78 85 2.6 7.0 0.00 0.00 0.00 45 1011.8
20260509141333 78 79 4.3 8.7 0.00 0.00 0.00 46 1011.8
20260509140433 77 314 2.6 3.5 0.00 0.00 0.00 46 1012.1
20260509135533 77 88 1.7 7.0 0.00 0.00 0.00 45 1012.2
20260509134633 79 90 5.2 9.6 0.00 0.00 0.00 46 1012.2
20260509133733 79 43 2.6 8.7 0.00 0.00 0.00 48 1012.3
20260509131033 77 9 1.7 7.0 0.00 0.00 0.00 50 1012.4
20260509130133 75 100 4.3 10.4 0.00 0.00 0.00 50 1012.6
20260509125233 74 75 4.3 9.6 0.00 0.00 0.00 50 1012.7
20260509124333 75 74 3.5 9.6 0.00 0.00 0.00 50 1012.8
20260509123433 75 65 7.0 9.6 0.00 0.00 0.00 50 1012.8
20260509122533 76 340 3.5 7.0 0.00 0.00 0.00 50 1013.0
20260509121633 76 338 3.5 9.6 0.00 0.00 0.00 50 1013.0
20260509120733 76 90 1.7 9.6 0.00 0.00 0.00 51 1013.1
20260509115833 75 80 6.1 7.0 0.00 0.00 0.00 49 1013.1
20260509114933 75 65 1.7 9.6 0.00 0.00 0.00 51 1013.2
20260509114033 74 90 3.5 8.7 0.00 0.00 0.00 51 1013.2
20260509113133 73 91 3.5 7.8 0.00 0.00 0.00 51 1013.2
20260509112233 74 73 3.5 6.1 0.00 0.00 0.00 51 1013.2
20260509111333 73 93 3.5 8.7 0.00 0.00 0.00 52 1013.2
20260509105533 73 90 3.5 7.8 0.00 0.00 0.00 51 1013.5
20260509104633 73 26 3.5 7.0 0.00 0.00 0.00 51 1013.5
20260509103733 73 48 5.2 8.7 0.00 0.00 0.00 51 1013.6
20260509102833 73 56 7.0 8.7 0.00 0.00 0.00 52 1013.6
20260509101933 72 84 2.6 8.7 0.00 0.00 0.00 52 1013.8
20260509101033 73 11 4.3 8.7 0.00 0.00 0.00 53 1013.7
20260509100133 71 343 1.7 7.0 0.00 0.00 0.00 57 1013.9
20260509095234 71 7 1.7 7.0 0.00 0.00 0.00 59 1014.2
20260509094333 70 83 5.2 7.8 0.00 0.00 0.00 57 1014.1
20260509093433 70 45 1.7 9.6 0.00 0.00 0.00 59 1014.2
20260509092533 70 84 5.2 8.7 0.00 0.00 0.00 56 1014.2
20260509091633 69 64 3.5 7.0 0.00 0.00 0.00 58 1014.1
20260509085833 69 78 6.1 9.6 0.00 0.00 0.00 59 1014.0
20260509084933 68 82 3.5 8.7 0.00 0.00 0.00 60 1013.9
20260509084033 67 91 1.7 9.6 0.00 0.00 0.00 61 1013.9
20260509083133 66 86 3.5 9.6 0.00 0.00 0.00 60 1013.9
20260509082233 65 87 4.3 9.6 0.00 0.00 0.00 61 1013.8
20260509081333 64 314 2.6 7.0 0.00 0.00 0.00 61 1013.8
20260509080433 64 287 6.1 7.8 0.00 0.00 0.00 61 1014.0
20260509075533 64 93 5.2 8.7 0.00 0.00 0.00 60 1014.0
20260509074633 65 88 4.3 8.7 0.00 0.00 0.00 60 1014.1
20260509072833 64 105 3.5 9.6 0.00 0.00 0.00 62 1014.3
20260509071933 64 86 3.5 7.0 0.00 0.00 0.00 62 1014.4
20260509071033 63 98 3.5 6.1 0.00 0.00 0.00 69 1014.4
20260509070133 61 90 3.5 7.0 0.00 0.00 0.00 69 1014.4
20260509065234 60 73 4.3 7.0 0.00 0.00 0.00 70 1014.5
20260509064334 60 88 3.5 7.0 0.00 0.00 0.00 70 1014.5
20260509063433 59 91 3.5 7.0 0.00 0.00 0.00 70 1014.5
20260509062533 59 87 4.3 7.0 0.00 0.00 0.00 70 1014.5
20260509061633 58 89 5.2 7.0 0.00 0.00 0.00 71 1014.4
20260509060733 57 90 3.5 6.1 0.00 0.00 0.00 72 1014.6
20260509054933 55 90 2.6 7.0 0.00 0.00 0.00 73 1014.5
20260509054033 55 96 3.5 5.2 0.00 0.00 0.00 74 1014.4
20260509053134 53 94 3.5 5.2 0.00 0.00 0.00 78 1014.5
20260509052233 52 90 3.5 4.3 0.00 0.00 0.00 78 1014.5
20260509051333 52 83 3.5 4.3 0.00 0.00 0.00 78 1014.5
20260509050433 52 54 1.7 2.6 0.00 0.00 0.00 77 1014.4
20260509045533 51 48 1.7 1.7 0.00 0.00 0.00 76 1014.4
20260509044633 51 334 0.0 1.7 0.00 0.00 0.00 76 1014.5
20260509043733 51 336 0.9 1.7 0.00 0.00 0.00 76 1014.4
20260509041933 51 18 0.9 2.6 0.00 0.00 0.00 75 1014.1
20260509040133 52 83 2.6 3.5 0.00 0.00 0.00 75 1014.1
20260509035233 53 89 1.7 4.3 0.00 0.00 0.00 76 1014.0
20260509034333 53 90 2.6 5.2 0.00 0.00 0.00 76 1014.1
20260509033433 53 88 4.3 5.2 0.00 0.00 0.00 76 1014.0
20260509032533 53 90 3.5 4.3 0.00 0.00 0.00 76 1014.1
20260509031633 53 82 2.6 5.2 0.00 0.00 0.00 76 1014.1
20260509030733 53 85 2.6 4.3 0.00 0.00 0.00 75 1014.0
20260509025833 53 86 2.6 3.5 0.00 0.00 0.00 75 1014.1
20260509024933 52 67 2.6 3.5 0.00 0.00 0.00 74 1014.2
20260509024033 52 321 1.7 1.7 0.00 0.00 0.00 73 1014.2
20260509023133 52 318 0.9 1.7 0.00 0.00 0.00 73 1014.4
20260509021333 54 51 0.9 3.5 0.00 0.00 0.00 73 1014.5